SKCUBE
1 42789U 17036AA 18235.33009449 .00000965 00000-0 45203-4 0 9996
2 42789 097.3957 294.1070 0011328 192.8995 167.1953 15.22042986064723
VZLUSAT 1
1 42790U 17036AB 18235.39538202 .00001305 00000-0 59340-4 0 9994
2 42790 097.3964 294.3312 0011007 192.3413 167.7555 15.22451489064746
VENTA 1
1 42791U 17036AC 18235.44104293 .00000884 00000-0 41622-4 0 9995
2 42791 097.3956 294.2598 0010976 192.9061 167.1896 15.22084552064736
Robusta 1B
1 42792U 17036AD 18235.75248392 .00000998 00000-0 46447-4 0 9995
2 42792 97.3956 294.5986 0010932 192.0648 168.0328 15.22194324 64802
D-SAT
1 42794U 17036AF 18235.56223014 .00000308 00000-0 32068-4 0 9999
2 42794 097.5857 287.6513 0128278 058.4570 302.9102 14.90913260063762
BIRD-J
1 42820U 98067MU 18235.79597631 .00021222 00000-0 17324-3 0 9991
2 42820 51.6348 16.2176 0002417 50.7062 309.4150 15.70543399 64471
BIRD-G
1 42821U 98067MV 18235.49229259 .00019428 00000-0 16380-3 0 9993
2 42821 051.6346 018.6944 0002386 054.8747 305.2473 15.69826909064414
BIRD-M
1 42822U 98067MW 18235.58860524 .00020005 00000-0 16610-3 0 9999
2 42822 051.6348 017.8412 0002332 055.3922 304.7295 15.70176087064435
BIRD-B
1 42823U 98067MX 18235.77046241 .00020432 00000-0 16837-3 0 9998
2 42823 51.6356 16.8274 0004228 81.9391 278.2086 15.70338493 64446
BIRD-N
1 42824U 98067MY 18235.48650515 .00019771 00000-0 16501-3 0 9994
2 42824 051.6359 018.7014 0004169 081.8387 278.3083 15.70055787064418
TechnoSat
1 42829U 17042E 18235.68327010 .00000137 00000-0 19350-4 0 9998
2 42829 97.5893 135.4706 0013770 341.3270 18.7442 14.90849773 60387
TOMSK-TPU 120
1 42910U 98067MZ 18235.80981283 .00014352 00000-0 14169-3 0 9993
2 42910 51.6350 23.0709 0005402 104.1314 256.0283 15.66180233 57973
TANYUSHA 1
1 42911U 98067NA 18235.80668532 .00017109 00000-0 15907-3 0 9997
2 42911 51.6356 21.5882 0004817 99.1123 261.0419 15.67520715 57976
TANYUSHA 2
1 42912U 98067NB 18235.83653624 .00015578 00000-0 14953-3 0 9995
2 42912 51.6378 22.5279 0004356 111.2937 248.8524 15.66811653 57983
SFERA 2
1 42913U 98067NC 18235.86982660 .00050339 00000-0 28577-3 0 9995
2 42913 51.6352 9.8737 0000879 131.8204 228.2872 15.78502886 58116
TNS 0-2
1 42914U 98067ND 18235.54445699 .00013781 00000-0 13741-3 0 9994
2 42914 051.6361 025.1000 0004551 104.8780 255.2720 15.65974984057895
QIKCOM-1
1 42983U 98067NF 18235.88067983 .00002535 00000-0 41724-4 0 9991
2 42983 51.6404 37.9275 0004743 91.2063 268.9472 15.56647079 46761
AO-91
1 43017U 17073E 18235.77364215 .00000716 00000-0 61023-4 0 9997
2 43017 97.7073 164.0904 0260844 51.8117 310.6278 14.78145730 41092
EcAMSat
1 43019U 98067NG 18235.85164840 .00003998 00000-0 59593-4 0 9996
2 43019 51.6404 36.9894 0005357 69.0403 291.1162 15.57676879129094
PICSAT
1 43132U 18004X 18235.59770748 .00000826 00000-0 38442-4 0 9993
2 43132 097.5289 298.4442 0008983 214.8447 145.2202 15.22786069033970
AO-92
1 43137U 18004AC 18235.64938842 .00000754 00000-0 35312-4 0 9998
2 43137 97.5284 298.5202 0008464 216.2550 143.8113 15.22836064 33976
TianYi 2
1 43155U 18008A 18235.86127510 .00000569 00000-0 38188-4 0 9996
2 43155 97.5204 309.1786 0016261 272.7591 191.8230 15.10655316 32709
Zhou Enlai
1 43156U 18008B 18235.87496753 .00000976 00000-0 63672-4 0 9994
2 43156 97.5252 309.1410 0013426 269.4270 203.8480 15.10125104 32690
TianYi 6
1 43158U 18008D 18235.78974148 .00000209 00000-0 16858-4 0 9998
2 43158 97.5206 308.8540 0012741 268.3719 239.4662 15.09813457 32652
S-Net G
1 43186U 18014G 18235.82310900 .00000606 00000-0 58432-4 0 9996
2 43186 97.7194 143.4134 0009504 288.3548 71.6640 14.96485681 30433
S-Net H
1 43187U 18014H 18235.82299274 .00000602 00000-0 58076-4 0 9997
2 43187 97.7192 143.4088 0009501 288.3058 71.7130 14.96486499 30436
S-Net J
1 43188U 18014J 18235.82288004 .00000601 00000-0 57970-4 0 9998
2 43188 97.7195 143.4153 0009494 288.4548 71.5641 14.96487225 30432
S-Net K
1 43189U 18014K 18235.82303477 .00000605 00000-0 58355-4 0 9993
2 43189 97.7191 143.4078 0009492 288.3040 71.7149 14.96486127 28981
FMN 1
1 43192U 18015A 18235.77969785 .00001767 00000-0 77894-4 0 9991
2 43192 97.3637 3.3169 0015223 265.7193 94.2303 15.23027929 30806
Shaonian Xing
1 43199U 18015H 18235.78985828 .00001343 00000-0 58468-4 0 9991
2 43199 97.3420 3.0131 0016125 280.5110 79.4310 15.23850133 30832
1KUNS-PF
1 43466U 98067NP 18235.85395668 .00008912 00000-0 12814-3 0 9991
2 43466 51.6396 39.9956 0000428 67.1093 292.9944 15.56902794 16235
UBAKUSAT
1 43467U 98067NQ 18235.86401859 .00006687 00000-0 99291-4 0 9995
2 43467 51.6401 40.0656 0002665 33.0938 327.0220 15.56508820 16248
Irazu
1 43468U 98067NR 18235.84089098 .00009921 00000-0 14000-3 0 9999
2 43468 51.6395 39.9083 0000299 67.0489 293.0535 15.57261949116220
EnduroSat One
1 43551U 98067NZ 18235.63248144 .00007425 00000-0 11432-3 0 9991
2 43551 51.6397 42.2605 0006984 106.9475 253.2282 15.55307695 6421
EQUISat
1 43552U 98067PA 18235.63287119 .00006391 00000-0 99596-4 0 9996
2 43552 51.6399 42.2636 0007237 107.1278 253.0506 15.55249017 6389
UiTMSat 1
1 43589U 98067PD 18235.65442825 .00007024 00000-0 11072-3 0 9991
2 43589 51.6397 42.4056 0006607 115.9822 244.1850 15.54751727 2123
Maya 1
1 43590U 98067PE 18235.84701942 .00007006 00000-0 11033-3 0 9999
2 43590 51.6397 41.4419 0006694 116.9545 243.2130 15.54782702 2089
Bhutan 1
1 43591U 98067PF 18235.84670256 .00007031 00000-0 11055-3 0 9995
2 43591 51.6398 41.4398 0006796 118.4897 241.6779 15.54819195 2085
SiriusSat 1
1 43595U 98067PG 18235.85146859 .00006655 00000-0 10656-3 0 9994
2 43595 51.6398 41.4675 0004094 72.8982 287.2457 15.54422204 1263
OBJECT PH
1 43596U 98067PH 18235.85217216 .00006795 00000-0 10916-3 0 9995
2 43596 51.6406 41.4735 0004809 75.2487 284.9036 15.54289130 1268
OBJECT PJ
1 43597U 98067PJ 18235.85216043 .00007944 00000-0 12632-3 0 9997
2 43597 51.6388 41.4730 0004240 87.6169 272.5307 15.54302138 1264
/EX
1
0
The following objects which are BHUTAN-1, MAYA-1 and UiTMSat-1
have been have been added to the distribution list this week:
OBJECT PD - NORAD CAT ID 43589
OBJECT PE - NORAD CAT ID 43590
OBJECT PF - NORAD CAT ID 43591
Awaiting identification of who is who.
Also note that BEESAT-3 is now listed as NORAD CAT ID 39135. Change by
Space-Track.
(Thanks to Merlin Barschke for pointing out this correction.)
1
0
SB KEPS @ AMSAT $ORB18228.N
2Line Orbital Elements 18228.AMSAT
HR AMSAT ORBITAL ELEMENTS FOR AMATEUR SATELLITES IN NASA FORMAT
FROM WA5QGD FORT WORTH,TX August 16, 2018
BID: ORB18228.N
DECODE 2-LINE ELSETS WITH THE FOLLOWING KEY:
1 AAAAAU 00 0 0 BBBBB.BBBBBBBB .CCCCCCCC 00000-0 00000-0 0 DDDZ
2 AAAAA EEE.EEEE FFF.FFFF GGGGGGG HHH.HHHH III.IIII JJ.JJJJJJJJKKKKKZ
KEY: A-CATALOGNUM B-EPOCHTIME C-DECAY D-ELSETNUM E-INCLINATION F-RAAN
G-ECCENTRICITY H-ARGPERIGEE I-MNANOM J-MNMOTION K-ORBITNUM Z-CHECKSUM
TO ALL RADIO AMATEURS BT
AO-07
1 07530U 74089B 18228.89552580 -.00000028 00000-0 10254-3 0 9992
2 07530 101.6923 195.3193 0011738 216.7796 167.0749 12.53633824001965
UO-11
1 14781U 84021B 18228.92715661 .00000037 00000-0 10787-4 0 9991
2 14781 097.6450 262.5377 0007164 238.2133 121.8384 14.83023309832447
LO-19
1 20442U 90005G 18228.89347635 .00000007 00000-0 18691-4 0 9998
2 20442 098.6118 167.0198 0011322 336.8951 023.1722 14.32902226492523
HUBBLE
1 20580U 90037B 18228.97222848 .00000399 00000-0 13415-4 0 9996
2 20580 028.4700 073.2717 0002844 075.3866 073.0376 15.09076829354575
MET-2/21
1 22782U 93055A 18228.67952390 .00000017 00000-0 23700-5 0 9990
2 22782 082.5475 045.9185 0021384 319.8872 089.5493 13.83811399260273
